Weather observations for the past three days for
Barre / Montpelier, Knapp State Airport
Imperial (Metric)
Date Time (edt) Wind (mph) Vis. (mi.) Weather Sky Cond. Temperature (ºF) Relative Humidity Wind Chill (°F) Heat Index (°F) Pressure Precipitation (in)
Air Dwpt 6 hour altimeter (in) sea level (mb) 1 hr 3 hr 6 hr
Max. Min.
12 22:51 Calm 10.00 Fair CLR 55 51.1 87% 30.03 1017.1
12 21:51 S 3 10.00 Fair CLR 55.9 52 87% 30.03 1016.9
12 20:51 Calm 10.00 Fair CLR 59 53.1 81% 30.01 1016.4
12 19:51 NW 7 10.00 Partly Cloudy FEW047 SCT055 66 53.1 71.1 66 63% 30 1016.0
12 18:51 N 6 10.00 Overcast BKN039 OVC049 68 53.1 59% 30 1015.7
12 17:51 NW 6 10.00 Overcast FEW044 SCT060 OVC070 68 53.1 59% 30 1015.9
12 16:51 NW 7 10.00 Mostly Cloudy BKN070 69.1 53.1 57% 30 1015.9
12 15:51 NW 8 10.00 Partly Cloudy FEW040 SCT050 70 53.1 55% 30.01 1016.3
12 14:51 NW 6 10.00 Overcast BKN041 OVC048 68 52 57% 30.02 1016.6
12 13:51 Vrbl 3 10.00 Mostly Cloudy BKN036 69.1 52 69.1 57 55% 30.04 1017.2
12 12:51 N 7 10.00 Overcast BKN030 OVC041 64.9 53.1 66% 30.06 1018.1
12 11:51 NE 7 10.00 Overcast FEW026 BKN034 OVC041 64.9 52 63% 30.07 1018.3
12 10:51 Vrbl 3 10.00 Overcast BKN027 OVC032 62.1 52 70% 30.08 1018.6
12 09:51 N 7 10.00 Mostly Cloudy BKN023 62.1 52 70% 30.08 1018.6
12 08:51 Calm 10.00 Mostly Cloudy SCT014 BKN024 57.9 51.1 78% 30.09 1019.0
12 07:51 N 3 10.00 Overcast OVC060 57 52 57 51.1 83% 30.08 1018.6
12 06:51 NW 3 10.00 Overcast OVC060 54 51.1 90% 30.08 1018.8
12 05:51 Calm 10.00 Overcast OVC055 52 50 93% 30.07 1018.5
12 04:51 Calm 10.00 Overcast OVC055 53.1 48.9 86% 30.06 1018.0
12 03:51 Calm 10.00 Overcast SCT055 OVC090 53.1 50 89% 30.06 1018.2
12 02:51 NW 6 10.00 Mostly Cloudy SCT019 BKN050 BKN090 53.1 50 89% 30.06 1018.0
12 01:51 NW 5 10.00 Overcast OVC090 55 51.1 62.1 55 87% 30.05 1017.7
12 00:51 NW 3 10.00 Overcast OVC090 55 52 90% 30.06 1017.8
11 23:51 Calm 10.00 Overcast FEW065 OVC090 57 52 83% 30.06 1017.9
11 22:51 NW 3 10.00 Overcast FEW026 SCT060 OVC085 57.9 52 81% 30.05 1017.7
11 21:51 W 3 10.00 Overcast FEW060 OVC080 59 52 78% 30.04 1017.2
11 20:51 NW 6 10.00 Partly Cloudy SCT080 59 52 78% 30.02 1016.7
11 19:51 NW 5 10.00 Overcast FEW060 OVC080 62.1 53.1 66.9 62.1 73% 30 1016.1
11 18:51 N 6 10.00 Overcast FEW025 FEW043 OVC075 64 53.1 68% 29.99 1015.8
11 17:51 NW 8 10.00 Overcast BKN034 OVC075 64 52 65% 29.98 1015.3
11 16:51 NW 7 10.00 Overcast FEW050 OVC060 64 52 65% 29.98 1015.4
11 15:51 NW 8 10.00 Overcast BKN034 BKN050 OVC070 64.9 53.1 66% 29.98 1015.2
11 14:51 Calm 10.00 Overcast BKN035 OVC047 64.9 52 63% 29.98 1015.3
11 13:51 Vrbl 5 10.00 Overcast BKN033 OVC070 64 51.1 64.9 52 63% 29.97 1015.1
11 12:51 NE 6 10.00 Overcast BKN026 OVC065 62.1 51.1 67% 29.98 1015.3
11 11:51 E 5 10.00 Overcast OVC022 61 50 67% 29.98 1015.4
11 10:51 NW 3 10.00 Overcast OVC019 57.9 48.9 72% 29.97 1015.1
11 09:51 N 7 10.00 Overcast OVC014 57.9 51.1 78% 29.97 1015.2
11 08:51 NW 3 10.00 Overcast OVC012 53.1 48.9 86% 29.97 1015.3
11 07:51 N 5 10.00 Overcast BKN015 OVC055 52 48 53.1 51.1 86% 29.96 1014.8
11 06:51 NW 6 10.00 Overcast OVC010 51.1 48 89% 29.94 1014.2
11 05:51 NW 7 10.00 Overcast OVC017 51.1 46.9 86% 29.91 1013.2
11 04:51 NW 5 10.00 Overcast OVC050 52 46.9 83% 29.88 1012.1
11 03:51 Calm 10.00 Overcast OVC050 52 46.9 83% 29.87 1011.8
11 02:51 W 3 10.00 Overcast SCT026 OVC050 52 46.9 83% 29.86 1011.5
11 01:51 W 5 10.00 Mostly Cloudy FEW029 BKN049 52 48 55 52 86% 29.86 1011.4
11 00:51 NW 6 10.00 Overcast FEW018 OVC026 53.1 48 83% 29.84 1010.7
10 23:51 NW 6 10.00 Overcast BKN012 OVC017 53.1 48.9 86% 29.83 1010.2
10 22:51 NW 6 10.00 Mostly Cloudy BKN014 BKN022 53.1 48 83% 29.81 1009.4
10 21:51 NW 8 10.00 Overcast OVC015 54 48.9 83% 29.79 1008.9
10 20:51 NW 9 10.00 Overcast OVC017 54 48 80% 29.77 1008.4
10 19:51 NW 5 10.00 Overcast BKN020 OVC026 55 48 60.1 55 77% 29.76 1007.9 0.01
10 18:51 NW 9 10.00 Overcast OVC021 55 48 77% 29.74 1007.3
10 17:51 NW 12 G 20 10.00 Overcast OVC023 55.9 48.9 77% 29.71 1006.3
10 16:51 NW 9 10.00 Overcast FEW019 OVC027 57 48.9 74% 29.69 1005.7 0.01
10 15:51 NW 8 10.00 Partly Cloudy SCT020 SCT026 59 52 78% 29.67 1004.8
10 14:51 NW 8 10.00 Mostly Cloudy SCT018 BKN028 BKN033 59 54 83% 29.65 1004.0 0.01
10 13:51 NW 9 2.50 Rain Fog/Mist BKN010 BKN013 OVC050 55 52 61 55 90% 29.63 1003.7 0.03 0.03
10 12:51 W 8 G 20 6.00 Light Rain OVC028 59 52 78% 29.62 1003.0
10 11:51 Calm 10.00 Overcast BKN027 OVC033 60.1 50 70% 29.59 1002.2
10 10:51 SW 7 10.00 Overcast FEW027 BKN036 OVC050 60.1 48.9 67% 29.59 1001.9
10 09:51 Vrbl 7 10.00 Overcast BKN055 OVC095 60.1 50 70% 29.57 1001.5
10 08:51 SW 7 10.00 Overcast BKN041 BKN049 OVC060 57 48.9 74% 29.57 1001.5
10 07:51 SW 9 G 16 10.00 Overcast SCT039 BKN049 OVC055 55.9 48 55.9 54 75% 29.56 1001.2
10 06:51 Vrbl 7 10.00 Overcast SCT029 BKN035 OVC085 55.9 48.9 77% 29.56 1000.9
10 05:51 SW 5 10.00 Overcast BKN031 OVC039 55 48 77% 29.55 1000.6
10 04:51 SW 3 10.00 Light Rain OVC033 55 48 77% 29.54 1000.4
10 03:51 Calm 10.00 Overcast OVC032 54 48 80% 29.53 1000.0
10 02:51 W 6 10.00 Overcast OVC031 55 48 77% 29.53 999.8
10 01:51 W 5 10.00 Overcast OVC031 54 48 57 52 80% 29.53 999.8 0.01
10 00:51 SW 3 10.00 Overcast BKN039 OVC055 53.1 48 83% 29.53 1000.2
09 23:51 W 5 10.00 Mostly Cloudy SCT042 SCT049 BKN065 54 48 80% 29.54 1000.5
Date Time (edt) Wind (mph) Vis. (mi.) Weather Sky Cond. Air Dwpt Max. Min. Relative Humidity Wind Chill (°F) Heat Index (°F) altimeter (in) sea level (mb) 1 hr 3 hr 6 hr
6 hour
Temperature (ºF) Pressure Precipitation (in)